Home   Weather   Telfs   Past weeks

Flag for Austria Past Weather in Telfs, Tyrol, Austria — Yesterday and Last 2 Weeks

Now
46 °F

Scattered clouds.


Feels Like: 44 °F
Forecast: 30 / 59 °F
Wind: 5 mph from Southeast

Location: Innsbruck-Flughafen

Current Time: Apr 23, 2017 at 11:56:25 am

Latest Report: Apr 23, 2017 at 11:20 am


Visibility: N/A

Pressure: 30.18 "Hg (27.96 "Hg at 630m altitude)

Humidity: 62%

Dew Point: 34 °F

Location of TelfsLocation

Past Weather in Telfs — Graph

°F

Telfs Temperature Yesterday

Maximum temperature yesterday: 63 °F (at 3:20 pm)
Minimum temperature yesterday: 30 °F (at 5:20 am)
Average temperature yesterday: 46 °F

High & Low Weather Summary for the Past Weeks

 TemperatureHumidityPressure
High73 °F (Apr 9, 3:20 pm)100% (Apr 19, 3:50 am)30.54 "Hg (Apr 19, 3:50 am)
Low25 °F (Apr 21, 4:50 am)23% (Apr 9, 4:20 pm)29.86 "Hg (Apr 17, 5:20 pm)
Average47 °F68%30.14 "Hg
* Reported Apr 8 10:20 am — Apr 23 10:20 am, Telfs, Weather by CustomWeather, © 2017

Note: Actual official high and low records may vary slightly from our data, if they occured in-between our weather recording intervals... More about our weather records

Advertising

Telfs Weather History for the Previous 24 Hours

Scroll right to see more
 ConditionsComfort  
Time TempWeatherWind HumidityBarometerVisibility
10:20 am
Sun, Apr 23
43 °FBroken clouds.6 mph71%30.18 "HgN/A
9:50 am43 °FBroken clouds.5 mph76%30.18 "HgN/A
9:20 am41 °FBroken clouds.3 mph81%30.18 "HgN/A
8:50 am41 °FBroken clouds.2 mph81%30.18 "HgN/A
8:20 am39 °FBroken clouds.2 mph87%30.18 "HgN/A
7:50 am39 °FDrizzle. Broken clouds.3 mph87%30.18 "HgN/A
7:20 am39 °FLight rain. Broken clouds.1 mph87%30.18 "HgN/A
6:50 am39 °FLight rain. Broken clouds.2 mph93%30.18 "HgN/A
6:20 am39 °FSprinkles. Broken clouds.2 mph87%30.18 "HgN/A
5:50 am39 °FPartly cloudy.3 mph93%30.15 "HgN/A
5:20 am39 °FLight rain. Partly cloudy.6 mph93%30.15 "HgN/A
4:50 am39 °FLight rain. Partly cloudy.7 mph93%30.15 "HgN/A
4:20 am41 °FLight rain. Partly cloudy.5 mph93%30.15 "HgN/A
3:50 am41 °FLight rain. Passing clouds.3 mph93%30.15 "HgN/A
3:20 am41 °FLight rain. Partly cloudy.3 mph87%30.12 "HgN/A
2:50 am41 °FLight rain. Partly cloudy.1 mph87%30.12 "HgN/A
2:20 am41 °FLight rain. Passing clouds.7 mph87%30.12 "HgN/A
1:50 am43 °FSprinkles. Partly cloudy.9 mph87%30.12 "HgN/A
1:20 am43 °FSprinkles. Partly cloudy.9 mph87%30.12 "HgN/A
12:50 am45 °FPassing clouds.7 mph87%30.12 "HgN/A
12:20 am45 °FLight rain. Partly cloudy.5 mph87%30.12 "HgN/A
11:50 pm
Sat, Apr 22
46 °FLight rain. Partly cloudy.2 mph82%30.12 "HgN/A
11:20 pm46 °FLight rain. Passing clouds.2 mph82%30.12 "HgN/A
10:50 pm48 °FSprinkles. Passing clouds.5 mph71%30.12 "HgN/A
10:20 pm50 °FSprinkles. Passing clouds.5 mph62%30.12 "HgN/A
9:50 pm50 °FLight rain. Partly cloudy.6 mph62%30.12 "HgN/A
9:20 pm52 °FLight rain. Partly cloudy.7 mph54%30.12 "HgN/A
8:20 pm54 °FLight rain. Partly cloudy.6 mph47%30.09 "HgN/A
7:50 pm54 °FBroken clouds.7 mph47%30.07 "HgN/A
7:20 pm55 °FPartly sunny.7 mph41%30.07 "HgN/A
6:50 pm55 °FBroken clouds.9 mph41%30.07 "HgN/A
6:20 pm57 °FBroken clouds.13 mph36%30.07 "HgN/A
5:50 pm57 °FPartly sunny.13 mph39%30.04 "HgN/A
5:20 pm59 °FBroken clouds.9 mph36%30.04 "HgN/A
4:50 pm63 °FBroken clouds.5 mph30%30.04 "HgN/A
4:20 pm63 °FBroken clouds.8 mph30%30.04 "HgN/A
3:50 pm63 °FBroken clouds.9 mph27%30.04 "HgN/A
3:20 pm63 °FBroken clouds.6 mph34%30.07 "HgN/A
2:50 pm61 °FBroken clouds.2 mph29%30.07 "HgN/A
1:50 pm61 °FScattered clouds.7 mph31%30.09 "HgN/A
1:20 pm59 °FScattered clouds.6 mph36%30.12 "HgN/A
12:50 pm57 °FScattered clouds.3 mph36%30.12 "HgN/A
12:20 pm55 °FScattered clouds.3 mph38%30.15 "HgN/A
11:50 am54 °FSunny.3 mph41%30.18 "Hg10 mi
11:20 am52 °FSunny.5 mph41%30.18 "Hg10 mi
Weather by CustomWeather, © 2017

See weather overviewHow to use our weather pages